Location: San Martino di Castrozza
(46.2667°N, 11.8000°E)
Time: 14:50:33
(UTC+00:00)

Okean 3 - Pass Details

Date: 23 April 2021
Orbit: 575 x 601 km, 82.5° (Epoch: 12 May)

Event Time Altitude Azimuth Distance (km) Brightness Sun altitude
Exits shadow 02:15:07 38° 246° (WSW) 919 3.9 -18.2°
Maximum altitude 02:16:06 45° 283° (WNW) 821 3.9 -18.0°
Drops below altitude 10° 02:20:15 10° 357° (N) 1,951 6.6 -17.5°
Sets 02:22:33 0° 4° (N) 2,856 7.7 -17.2°
